Location: Auckland
(36.8670°S, 174.7670°E)
Time: 03:40:50
(UTC+12:00)

Courier 1B Rocket - Pass Details

Date: 19 July 2019
Orbit: 920 x 1202 km, 28.3° (Epoch: 22 August)

Event Time Altitude Azimuth Distance (km) Brightness Sun altitude
Rises 09:56:19 0° 275° (W) 3,838 7.8 22.1°
Reaches altitude 10° 09:59:33 10° 287° (WNW) 2,832 7.3 22.5°
Maximum altitude 10:05:06 27° 341° (NNW) 1,810 7.1 23.2°
Drops below altitude 10° 10:10:23 10° 36° (NE) 2,676 9.4 23.8°
Sets 10:13:21 0° 48° (NE) 3,589 9.3 24.1°
